{"data":{"norad_id":45087,"epoch":"2026-09-19T23:26:32.017344Z","epoch_age_seconds":59640,"freshness":"FRESH","line1":"1 45087U 20006AV  26262.97675946  .00070109  00000+0  93279-3 0  9992","line2":"2 45087  53.1534  37.3129 0001463 352.7813   7.3178 15.57554703367155","mean_motion":15.57554703,"eccentricity":0.0001463,"inclination_deg":53.1534,"raan_deg":37.3129,"arg_perigee_deg":352.7813,"mean_anomaly_deg":7.3178,"bstar":0.00093279,"rev_number":36715,"period_min":92.45261159858,"perigee_km":393.74570388358,"apogee_km":395.72744669171,"semimajor_km":6772.8735752876,"source":"CELESTRAK","updated_at":"2026-09-20T09:00:38.224787Z"}}